Find Starlink 30416

NORAD ID: 57847 Int'l Des: 2023-141 Owner: SPXS Country: US Constellation: starlink operational
LEOCIRCULAR

現在のビュー

3D地球を読み込み中...

About Starlink 30416

Starlink 30416 (NORAD 57847) is a starlink constellation satellite (v2 mini) launched Sep 12, 2023 by SPXS of US. It operates in LEO, CIRCULAR orbit with a mass of 730.00 kg.

Starlink 30416について

説明を読み込み中...

次回通過

Passes for default location (London). Set your location on the main map for personalized predictions.

高度履歴

Loading altitude history...

軌道要素

1 57847U 23141H 26171.36992642 -.00028462 00000-0 -90473-3 0 9990
2 57847 53.1589 166.8050 0000645 319.1518 40.9435 15.31847531156053
Epoch: Jun 20, 2026 • Age: 22 hours

現在のステータス

高度 477.2 km
速度 7.63 km/s
衛星直下点 52.93°N, 134.01°W
打ち上げ日 Sep 12, 2023
運用期間 2.7 years
タイプ internet

技術仕様

分類 Payload
質量 730.00 kg
乾燥質量 700.00 kg
総質量 730.00 kg
長さ 0.30 m
直径 4.10 m
スパン 29.00 m
形状 Box + pan
製造者 SPXS
バスタイプ Starlink V2M
フェーズステータス In Orbit
所有者/国 SPXS/US

Most Searched